Location: Bayshore Village Mobile Home Park
(26.6945°N, 81.8642°W)
Time: 21:39:56
(UTC+00:00)

Cosmos 1066 Rocket - Pass Details

Date: 17 June 2021
Orbit: 799 x 893 km, 81.2° (Epoch: 31 July)

Event Time Altitude Azimuth Distance (km) Brightness Sun altitude
Rises 00:49:27 0° 191° (S) 3,348 7.1 -6.1°
Reaches altitude 10° 00:51:52 10° 193° (SSW) 2,406 6.4 -6.5°
Maximum altitude 00:57:16 70° 277° (W) 856 4.5 -7.6°
Drops below altitude 10° 01:02:37 10° 1° (N) 2,378 7.0 -8.6°
Sets 01:05:00 0° 4° (N) 3,307 7.7 -9.1°
